User: anonymous
Location: Caltech
(34.1382°N, 118.1253°W)
Time: 07:29:43
(UTC-07:00)
Language:

deb Explorer IX - Orbit

View from above orbital plane
View from above orbital plane
View from above satellite
View from above satellite

Ground track
Ground track

The orbit data is extracted from the following two-line orbital elements,

1 00085U 61004C   14274.03491859  .00012288  00000-0  32473-2 0   444
2 00085 038.7657 154.9778 0450459 008.4511 352.3513 14.02040315635138
Epoch (UTC): 01 October 2014 00:50:16
Eccentricity: 0.0450459
inclination: 38.7657°
perigee height: 559 km
apogee height: 1214 km
right ascension of ascending node: 154.9778°
argument of perigee: 8.4511°
revolutions per day: 14.02040315
mean anomaly at epoch: 352.3513°
orbit number at epoch: 63513

The dashed part of the orbit path shows where the satellite is in the earth's shadow,  

DLR